FW1782 Weather Reports


time (UTC)temp
F
wind
direction
speed
knots
gust
knots
rain 1hr
in
rain 24hr
in
rain mn
in
humidity
%
barometer
mb
20260505074510 45 359 3.5 7.8 0.00 0.00 0.00 58 1008.3
20260505073005 45 359 2.6 5.2 0.00 0.00 0.00 58 1007.9
20260505071506 46 359 2.6 5.2 0.00 0.00 0.00 58 1008.0
20260505064541 47 359 2.6 7.8 0.00 0.00 0.00 55 1008.1
20260505063039 48 359 4.3 9.6 0.00 0.00 0.00 53 1008.1
20260505061545 48 359 5.2 12.2 0.00 0.00 0.00 52 1008.0
20260505060007 49 359 7.8 16.5 0.00 0.00 0.00 50 1007.6
20260505054502 49 359 8.7 18.2 0.00 0.00 0.00 52 1007.4
20260505053101 50 359 8.7 15.6 0.00 0.00 0.00 52 1007.2
20260505051612 50 359 12.2 22.6 0.00 0.00 0.00 51 1007.1
20260505041514 52 359 11.3 17.4 0.00 0.00 0.00 48 1006.7
20260505040114 52 359 7.0 20.9 0.00 0.00 0.00 49 1006.6
20260505034551 52 359 11.3 18.2 0.00 0.00 0.00 50 1006.4
20260505033046 53 359 11.3 22.6 0.00 0.00 0.00 49 1006.2
20260505031541 54 359 11.3 24.3 0.00 0.00 0.00 49 1006.0
20260505030018 55 359 9.6 20.9 0.00 0.00 0.00 49 1005.9
20260505024512 56 359 13.0 22.6 0.00 0.00 0.00 47 1005.5
20260505023008 58 359 11.3 16.5 0.00 0.00 0.00 46 1004.8
20260505021503 58 359 9.6 21.7 0.00 0.00 0.00 44 1003.8
20260505020106 58 359 10.4 20.0 0.00 0.00 0.00 41 1003.3
20260505014540 58 359 11.3 19.1 0.00 0.00 0.00 41 1003.8
20260505013034 58 359 11.3 23.5 0.00 0.00 0.00 41 1003.5
20260505011532 59 359 11.3 17.4 0.00 0.00 0.00 41 1003.1
20260505010005 60 359 13.9 25.2 0.00 0.00 0.00 39 1003.0
20260505004605 61 359 9.6 23.5 0.00 0.00 0.00 39 1002.9
20260505003100 61 359 11.3 24.3 0.00 0.00 0.00 39 1002.7
20260505001603 62 359 12.2 21.7 0.00 0.00 0.00 38 1002.6
20260505000049 62 359 8.7 18.2 0.00 0.00 0.00 37 1002.5
20260504234530 64 359 13.9 22.6 0.00 0.00 0.00 34 1002.5
20260504233021 65 359 10.4 26.9 0.00 0.00 0.00 34 1002.3
20260504231515 66 359 10.4 26.9 0.00 0.00 0.00 35 1002.2
20260504230115 67 359 12.2 27.8 0.00 0.00 0.00 35 1001.9
20260504224552 68 359 15.6 33.0 0.00 0.00 0.00 36 1001.6
20260504223049 70 359 13.0 29.5 0.00 0.00 0.00 35 1001.1
20260504221546 71 359 15.6 27.8 0.00 0.00 0.00 35 1000.7
20260504220023 71 359 17.4 26.9 0.00 0.00 0.00 33 1000.5
20260504214517 72 359 14.8 24.3 0.00 0.00 0.00 34 1000.1
20260504213017 72 359 14.8 26.1 0.00 0.00 0.00 34 1000.1
20260504211507 74 359 10.4 23.5 0.00 0.00 0.00 34 999.9
20260504210109 75 359 15.6 26.1 0.00 0.00 0.00 33 999.6
20260504204549 75 359 15.6 27.8 0.00 0.00 0.00 33 999.6
20260504203053 76 359 17.4 26.9 0.00 0.00 0.00 36 999.4
20260504201533 76 359 13.9 28.7 0.00 0.00 0.00 38 999.2
20260504200011 77 359 13.0 24.3 0.00 0.00 0.00 39 999.1
20260504194507 77 359 10.4 24.3 0.00 0.00 0.00 38 999.1
20260504193010 77 359 10.4 26.9 0.00 0.00 0.00 40 999.0
20260504191602 79 359 9.6 20.9 0.00 0.00 0.00 37 998.7
20260504190128 80 359 15.6 22.6 0.00 0.00 0.00 34 998.8
20260504184535 79 359 13.0 23.5 0.00 0.00 0.00 35 998.8
20260504183033 80 359 11.3 20.0 0.00 0.00 0.00 35 998.9
20260504181524 79 359 14.8 27.8 0.00 0.00 0.00 34 999.0
20260504180004 79 359 8.7 22.6 0.00 0.00 0.00 35 998.9
20260504174610 79 359 9.6 33.0 0.00 0.00 0.00 35 999.0
20260504173058 78 359 11.3 23.5 0.00 0.00 0.00 35 999.0
20260504171551 78 359 12.2 25.2 0.00 0.00 0.00 35 999.2
20260504160115 74 359 8.7 22.6 0.00 0.00 0.00 38 999.8
20260504140106 65 359 7.0 20.9 0.00 0.00 0.00 51 1001.3
20260504110121 48 359 1.7 4.3 0.00 0.00 0.00 68 1002.5
20260504090110 48 359 0.9 2.6 0.00 0.00 0.00 67 1003.4
20260504081537 49 359 0.0 1.7 0.00 0.00 0.00 67 1003.9